Muscle Shoals, AL

9:28 AM CDT on August 20, 2017 (GMT -0500)
Northwest Alabama Regional

Weather History for KMSL - July, 2013

Change the Weather History Date:

Tuesday, July 23, 2013

  Actual Average Record
Temperature  
Mean Temperature 77 °F 81 °F  
Max Temperature 83 °F 91 °F 104 °F (1952)
Min Temperature 71 °F 70 °F 56 °F (1947)
Degree Days  
Heating Degree Days 0 0  
Month to date heating degree days 0 0  
Since 1 June heating degree days 0 1  
Since 1 July heating degree days 0 0  
Cooling Degree Days 12 16  
Month to date cooling degree days 320 354  
Year to date cooling degree days 966 960  
Since 1 June cooling degree days 726 716  
Growing Degree Days 26 (Base 50)    
Moisture  
Dew Point 71 °F    
Average Humidity 81    
Maximum Humidity 93    
Minimum Humidity 69    
Precipitation  
Precipitation 0.37 in 0.13 in 2.60 in (1969)
Month to date precipitation 5.88 3.34  
Year to date precipitation 35.47 31.60  
Snow  
Snow 0.00 in - - ()
Month to date snowfall 0.0  
Since 1 June snowfall 0.0  
Since 1 July snowfall 0.0  
Snow Depth 0.00 in    
Sea Level Pressure  
Sea Level Pressure 29.92 in    
Wind  
Wind Speed 5 mph (SW)    
Max Wind Speed 17 mph    
Max Gust Speed 21 mph    
Visibility 10 miles    
Events Rain , Thunderstorm    
T = Trace of Precipitation, MM = Missing Value Source: NWS Daily Summary

Daily Weather History Graph

Daily Weather History Graph

Search for Another Location

Airport or City:

Trip Planner

Search our weather history database for the weather conditions in past years. The results will help you decide how hot, cold, wet, or windy it might be!

Date:

Astronomy

Jul. 23, 2013 Rise Set
Actual Time 5:54 AM CDT 7:59 PM CDT
Civil Twilight 5:25 AM CDT 8:27 PM CDT
Nautical Twilight 4:51 AM CDT 9:02 PM CDT
Astronomical Twilight 4:13 AM CDT 9:39 PM CDT
Moon 8:34 PM CDT (7/23) 6:57 AM CDT (7/23)
Length of Visible Light 15h 02m
Length of Day
14h 05m
Full, 99% of the Moon is Illuminated
Jul 23
Full
Jul 29
Last Quarter
Aug 6
New
Aug 14
First Quarter
Aug 20
Full

Hourly Weather History & Observations

Time (CDT) Temp. Heat Index Dew Point Humidity Pressure Visibility Wind Dir Wind Speed Gust Speed Precip Events Conditions
12:15 AM 73.4 °F - 69.8 °F 88% 29.97 in 10.0 mi Calm Calm - N/A   Scattered Clouds
12:53 AM 71.1 °F - 68.0 °F 90% 29.95 in 10.0 mi SE 3.5 mph - N/A   Partly Cloudy
1:53 AM 72.0 °F - 69.1 °F 91% 29.95 in 10.0 mi Calm Calm - N/A   Scattered Clouds
2:53 AM 71.1 °F - 69.1 °F 93% 29.94 in 10.0 mi Calm Calm - N/A   Scattered Clouds
3:28 AM 71.6 °F - 69.8 °F 94% 29.96 in 10.0 mi Calm Calm - N/A   Mostly Cloudy
3:53 AM 72.0 °F - 69.1 °F 91% 29.94 in 10.0 mi Calm Calm - N/A   Scattered Clouds
4:13 AM 71.6 °F - 69.8 °F 94% 29.96 in 10.0 mi Calm Calm - N/A Thunderstorm Mostly Cloudy
4:26 AM 71.6 °F - 69.8 °F 94% 29.95 in 10.0 mi SW 3.5 mph - N/A Thunderstorm Mostly Cloudy
4:53 AM 73.0 °F - 70.0 °F 90% 29.92 in 10.0 mi SSW 3.5 mph - N/A   Clear
5:53 AM 73.0 °F - 69.1 °F 87% 29.90 in 10.0 mi SSW 5.8 mph - N/A   Clear
6:53 AM 73.9 °F - 69.1 °F 85% 29.93 in 10.0 mi SSE 3.5 mph - N/A   Clear
7:53 AM 77.0 °F - 71.1 °F 82% 29.95 in 10.0 mi SW 4.6 mph - N/A   Mostly Cloudy
8:39 AM 78.8 °F - 73.4 °F 83% 29.97 in 10.0 mi WSW 9.2 mph - N/A Thunderstorm Thunderstorm
8:53 AM 79.0 °F - 73.0 °F 82% 29.95 in 10.0 mi WSW 6.9 mph - N/A Thunderstorm Thunderstorm
9:20 AM 80.6 °F 86.2 °F 75.2 °F 84% 29.96 in 10.0 mi West 11.5 mph - 0.04 in Rain Light Rain
9:43 AM 80.6 °F 85.4 °F 73.4 °F 79% 29.96 in 10.0 mi West 12.7 mph - 0.04 in Thunderstorm Mostly Cloudy
9:53 AM 79.0 °F - 73.9 °F 84% 29.94 in 10.0 mi WNW 11.5 mph - 0.05 in Rain , Thunderstorm Light Rain
10:14 AM 78.8 °F - 73.4 °F 83% 29.97 in 10.0 mi WNW 6.9 mph - 0.04 in Rain , Thunderstorm Thunderstorms and Rain
10:23 AM 77.0 °F - 75.2 °F 94% 29.97 in 10.0 mi West 6.9 mph - 0.11 in Rain , Thunderstorm Rain
10:33 AM 77.0 °F - 75.2 °F 94% 29.97 in 10.0 mi NNW 8.1 mph - 0.30 in Rain , Thunderstorm Heavy Thunderstorms and Rain
10:51 AM 77.0 °F - 73.4 °F 89% 29.96 in 10.0 mi South 4.6 mph - 0.31 in Thunderstorm Overcast
10:53 AM 77.0 °F - 73.9 °F 90% 29.95 in 10.0 mi South 4.6 mph - 0.31 in Thunderstorm Overcast
11:11 AM 78.8 °F - 73.4 °F 83% 29.96 in 10.0 mi SSW 3.5 mph - N/A   Overcast
11:35 AM 78.8 °F - 73.4 °F 83% 29.94 in 10.0 mi SSW 10.4 mph - N/A   Mostly Cloudy
11:53 AM 80.1 °F 84.2 °F 73.0 °F 79% 29.91 in 10.0 mi SW 9.2 mph - N/A   Mostly Cloudy
12:00 PM 82.4 °F 88.2 °F 73.4 °F 74% 29.93 in 10.0 mi SW 9.2 mph - N/A   Scattered Clouds
12:53 PM 80.1 °F 83.8 °F 72.0 °F 76% 29.89 in 10.0 mi South 6.9 mph - N/A   Clear
1:53 PM 78.1 °F - 72.0 °F 81% 29.91 in 10.0 mi SSW 6.9 mph - 0.00 in Rain Light Rain
2:53 PM 78.1 °F - 72.0 °F 81% 29.90 in 10.0 mi Calm Calm - 0.01 in   Mostly Cloudy
3:27 PM 80.6 °F 84.6 °F 71.6 °F 74% 29.90 in 10.0 mi WSW 8.1 mph - N/A   Scattered Clouds
3:44 PM 80.6 °F 84.6 °F 71.6 °F 74% 29.90 in 10.0 mi WSW 5.8 mph - N/A   Mostly Cloudy
3:51 PM 80.6 °F 84.6 °F 71.6 °F 74% 29.90 in 10.0 mi WSW 5.8 mph - N/A   Scattered Clouds
3:53 PM 80.1 °F 83.8 °F 72.0 °F 76% 29.88 in 10.0 mi WSW 6.9 mph - N/A   Scattered Clouds
4:00 PM 80.6 °F 84.6 °F 71.6 °F 74% 29.90 in 10.0 mi SW 5.8 mph - N/A   Mostly Cloudy
4:12 PM 80.6 °F 84.6 °F 71.6 °F 74% 29.90 in 10.0 mi West 4.6 mph - N/A   Scattered Clouds
4:22 PM 80.6 °F 84.6 °F 71.6 °F 74% 29.89 in 10.0 mi West 5.8 mph - N/A   Mostly Cloudy
4:30 PM 82.4 °F 87.2 °F 71.6 °F 70% 29.88 in 10.0 mi WSW 6.9 mph - N/A   Scattered Clouds
4:42 PM 82.4 °F 87.2 °F 71.6 °F 70% 29.88 in 10.0 mi Calm Calm - N/A   Mostly Cloudy
4:53 PM 81.0 °F 84.9 °F 71.1 °F 72% 29.86 in 10.0 mi SW 4.6 mph - N/A   Mostly Cloudy
5:06 PM 82.4 °F 87.2 °F 71.6 °F 70% 29.88 in 10.0 mi Variable 5.8 mph - N/A   Scattered Clouds
5:53 PM 80.1 °F 83.2 °F 70.0 °F 71% 29.87 in 10.0 mi West 11.5 mph - N/A   Scattered Clouds
6:02 PM 78.8 °F - 71.6 °F 78% 29.89 in 10.0 mi West 10.4 mph - N/A   Mostly Cloudy
6:09 PM 78.8 °F - 69.8 °F 74% 29.89 in 10.0 mi West 10.4 mph - N/A   Scattered Clouds
6:53 PM 79.0 °F - 71.1 °F 77% 29.87 in 10.0 mi West 9.2 mph - N/A   Partly Cloudy
7:53 PM 77.0 °F - 70.0 °F 79% 29.88 in 10.0 mi WSW 5.8 mph - N/A   Clear
8:53 PM 75.0 °F - 70.0 °F 84% 29.90 in 10.0 mi WSW 4.6 mph - N/A   Clear
9:53 PM 73.0 °F - 69.1 °F 87% 29.91 in 10.0 mi Calm Calm - N/A   Scattered Clouds
10:53 PM 73.0 °F - 70.0 °F 90% 29.93 in 10.0 mi SW 3.5 mph - N/A   Mostly Cloudy
11:53 PM 71.1 °F - 68.0 °F 90% 29.90 in 10.0 mi Calm Calm - N/A   Clear